This is the latest recevied weather packets stored in our database for station/object W1QED. If no packets are shown the sender has not sent any weather packets the latest 10 day(s).
| Time | Temp. | Humidity | Pressure | Rain* | Wind** | Luminosity | Snow |
|---|---|---|---|---|---|---|---|
| 1777407619 | 16.67° C | 32% | 1020 hPa | 0 mm | - | - | - |
| 1777407326 | 16.67° C | 33% | 1020.2 hPa | 0 mm | - | - | - |
| 1777407018 | 16.67° C | 31% | 1020.3 hPa | 0 mm | - | - | - |
| 1777406718 | 16.67° C | 31% | 1020.5 hPa | 0 mm | - | - | - |
| 1777406477 | 17.22° C | 29% | 1020.3 hPa | 0 mm | - | - | - |
| 1777406119 | 16.67° C | 32% | 1020.3 hPa | 0 mm | - | - | - |
| 1777405815 | 17.22° C | 30% | 1020.4 hPa | 0 mm | - | - | - |
| 1777405518 | 17.22° C | 31% | 1020.4 hPa | 0 mm | - | - | - |
| 1777405213 | 17.22° C | 30% | 1020.4 hPa | 0 mm | - | - | - |
| 1777404912 | 17.22° C | 33% | 1020.6 hPa | 0 mm | - | - | - |
| 1777404611 | 16.67° C | 31% | 1020.6 hPa | 0 mm | - | - | - |
| 1777404312 | 17.22° C | 32% | 1020.6 hPa | 0 mm | - | - | - |
| 1777404010 | 17.22° C | 31% | 1020.4 hPa | 0 mm | - | - | - |
| 1777403710 | 17.22° C | 31% | 1020.5 hPa | 0 mm | - | - | - |
| 1777403407 | 17.22° C | 31% | 1020.5 hPa | 0 mm | - | - | - |
| 1777403107 | 17.22° C | 32% | 1020.6 hPa | 0 mm | - | - | - |
| 1777402805 | 17.22° C | 32% | 1020.7 hPa | 0 mm | - | - | - |
| 1777402505 | 17.22° C | 33% | 1020.6 hPa | 0 mm | - | - | - |
| 1777402203 | 17.22° C | 33% | 1020.7 hPa | 0 mm | - | - | - |
| 1777401902 | 17.78° C | 32% | 1020.7 hPa | 0 mm | - | - | - |
| 1777401602 | 17.78° C | 31% | 1020.8 hPa | 0 mm | - | - | - |
| 1777401301 | 17.22° C | 33% | 1020.8 hPa | 0 mm | - | - | - |
| 1777401000 | 17.22° C | 33% | 1020.9 hPa | 0 mm | - | - | - |
| 1777400766 | 17.22° C | 34% | 1020.9 hPa | 0 mm | - | - | - |
| 1777400459 | 17.78° C | 31% | 1020.9 hPa | 0 mm | - | - | - |
* Rain latest hour (hover to see other rain measurements)
** Current wind speed in m/s (hover to see current wind gust speed)